Location: Newark
(44.3681°N, 100.3364°W)
Time: 08:47:25
(UTC+00:00)

S-56A Canister/Altair - Pass Details

Date: 08 March 2020
Orbit: 634 x 2498 km, 38.9° (Epoch: 08 April)

Event Time Altitude Azimuth Distance (km) Brightness Sun altitude
Rises 11:03:15 0° 186° (S) 3,871 10.9 -22.4°
Reaches altitude 10° 11:06:53 10° 165° (SSE) 3,229 10.7 -21.8°
Maximum altitude 11:11:41 17° 129° (SE) 3,143 11.0 -21.0°
Drops below altitude 10° 11:17:31 10° 95° (E) 4,105 12.3 -20.0°
Sets 11:23:06 0° 79° (ENE) 5,488 13.6 -19.0°
